This demonstration page uses our WeatherBlox Daily Observations layout. Learn more.

Hourly Observations for January 10, 2020

Temp ( °F °C ) Dew Point ( °F °C ) Humidity (%) Winds ( mph kmh ) Pressure ( in mb ) Visibility ( mi km ) Precip ( " mm )
12:27 am 00:27 Partly Cloudy 27 -2.8 23 -5 85 85 NNE 14 22 30.1 1019 9 14.48406 0 0
12:38 am 00:38 Mostly Cloudy 27 -2.8 23 -5 85 85 NNE 14 22 30.09 1019 8 12.87472 0 0
12:54 am 00:54 Cloudy 27 -2.8 23 -5 85 85 NNE 14 22 30.04 1017 8 12.87472 0 0
1:54 am 01:54 Cloudy 27 -2.8 22 -5.6 81 81 NNE 14 22 30.06 1018 10 16.0934 0 0
2:54 am 02:54 Cloudy 27 -2.8 22 -5.6 81 81 NNE 16 26 30.08 1019 9 14.48406 0 0
3:54 am 03:54 Cloudy 26 -3.3 21 -6.1 81 81 NE 15 24 30.09 1019 10 16.0934 0 0
4:54 am 04:54 Cloudy 26 -3.3 22 -5.6 84 84 NNE 13 20 30.1 1019 9 14.48406 0 0
5:54 am 05:54 Cloudy 26 -3.3 21 -6.1 81 81 NE 13 20 30.11 1020 10 16.0934 0 0
6:54 am 06:54 Cloudy 26 -3.3 21 -6.1 81 81 NNE 15 24 30.13 1020 10 16.0934 0 0
7:54 am 07:54 Cloudy 25 -3.9 21 -6.1 85 85 NNE 13 20 30.14 1021 10 16.0934 0 0
8:54 am 08:54 Cloudy 26 -3.3 21 -6.1 81 81 NNE 18 30 30.16 1021 10 16.0934 0 0
9:54 am 09:54 Cloudy 27 -2.8 21 -6.1 78 78 NNE 18 30 30.18 1022 10 16.0934 0 0
10:54 am 10:54 Cloudy 27 -2.8 21 -6.1 78 78 NNE 17 28 30.21 1023 10 16.0934 0 0
11:54 am 11:54 Cloudy 27 -2.8 21 -6.1 78 78 N 18 30 30.18 1022 10 16.0934 0 0
12:54 pm 12:54 Cloudy 27 -2.8 20 -6.7 75 75 N 23 37 30.18 1022 10 16.0934 0 0
1:54 pm 13:54 Windy with Snow Likely 25 -3.9 18 -7.8 75 75 N 21 33 30.19 1022 4 6.43736 0.001 0.001
2:04 pm 14:04 Windy with Snow Likely 24 -4.4 18 -7.8 77 77 NNE 22 35 30.22 1023 1.75 2.816345 0.001 0.001
2:25 pm 14:25 Windy with Snow Likely 24 -4.4 18 -7.8 77 77 N 23 37 30.21 1023 2 3.21868 0.001 0.001
2:33 pm 14:33 Windy with Snow Likely 24 -4.4 18 -7.8 77 77 N 24 39 30.21 1023 1.5 2.41401 0.001 0.001
2:46 pm 14:46 Windy with Snow Likely 23 -5 18 -7.8 81 81 N 25 41 30.22 1023 1.25 2.011675 0.001 0.001
2:54 pm 14:54 Windy with Snow Likely 23 -5 18 -7.8 81 81 N 24 39 30.18 1022 1.25 2.011675 0.001 0.001
3:18 pm 15:18 Mostly Cloudy with Scattered Snow Showers 22 -5.6 17 -8.3 82 82 N 24 39 30.25 1024 0.75 1.207005 0.001 0.001
3:45 pm 15:45 Mostly Cloudy with Scattered Snow Showers 21 -6.1 16 -8.9 81 81 N 23 37 30.25 1024 0.75 1.207005 0.001 0.001
3:54 pm 15:54 Mostly Cloudy with Scattered Snow Showers 21 -6.1 16 -8.9 81 81 N 26 43 30.21 1023 0.75 1.207005 0.001 0.001
4:31 pm 16:31 Mostly Cloudy with Scattered Snow Showers 20 -6.7 14 -10 78 78 N 28 44 30.25 1025 1 1.60934 0.01 0.254
4:42 pm 16:42 Windy with Snow Likely 20 -6.7 12 -11.1 71 71 N 26 43 30.25 1025 3 4.82802 0.01 0.254
4:54 pm 16:54 Windy with Snow Likely 19 -7.2 13 -10.6 77 77 N 30 48 30.2 1023 2 3.21868 0.01 0.254
5:01 pm 17:01 Windy with Snow Likely 19 -7.2 12 -11.1 74 74 N 29 46 30.27 1025 1.75 2.816345 0.001 0.001
5:09 pm 17:09 Windy with Snow Likely 19 -7.2 13 -10.6 77 77 N 25 41 30.28 1025 2.5 4.02335 0.001 0.001
5:16 pm 17:16 Windy with Snow Likely 18 -7.8 12 -11.1 77 77 N 23 37 30.28 1025 5 8.0467 0.001 0.001
5:29 pm 17:29 Mostly Cloudy 18 -7.8 10 -12.2 71 71 N 22 35 30.3 1026 10 16.0934 0.001 0.001
5:54 pm 17:54 Mostly Cloudy 18 -7.8 8 -13.3 65 65 N 26 43 30.2 1023 10 16.0934 0.001 0.001
6:54 pm 18:54 Cloudy 19 -7.2 10 -12.2 68 68 N 25 41 30.26 1025 10 16.0934 0 0
7:54 pm 19:54 Mostly Clear 17 -8.3 9 -12.8 70 70 N 23 37 30.29 1026 10 16.0934 0 0
8:54 pm 20:54 Mostly Clear 15 -9.4 8 -13.3 74 74 N 23 37 30.27 1025 10 16.0934 0 0
9:30 pm 21:30 Mostly Cloudy 15 -9.4 8 -13.3 74 74 N 22 35 30.33 1027 10 16.0934 0 0
9:54 pm 21:54 Mostly Cloudy 14 -10 8 -13.3 77 77 N 22 35 30.27 1025 10 16.0934 0 0
10:34 pm 22:34 Partly Cloudy 13 -10.6 6 -14.4 74 74 N 22 35 30.35 1028 10 16.0934 0 0
10:54 pm 22:54 Mostly Clear 13 -10.6 7 -13.9 77 77 N 23 37 30.31 1026 10 16.0934 0 0
11:54 pm 23:54 Clear 12 -11.1 4 -15.6 70 70 N 21 33 30.3 1026 10 16.0934 0 0

Powered by AerisWeather